TimeCDT,TemperatureF,Dew PointF,Humidity,Sea Level PressureIn,VisibilityMPH,Wind Direction,Wind SpeedMPH,Gust SpeedMPH,PrecipitationIn,Events,Conditions,WindDirDegrees,DateUTC
12:53 AM,68.0,57.9,70,29.97,10.0,South,5.8,-,N/A,,Clear,190,2013-09-07 05:53:00
1:53 AM,64.9,57.9,78,29.96,10.0,South,5.8,-,N/A,,Clear,180,2013-09-07 06:53:00
2:53 AM,64.9,59.0,81,29.96,10.0,South,6.9,-,N/A,,Clear,190,2013-09-07 07:53:00
3:53 AM,68.0,60.1,76,29.95,10.0,South,8.1,-,N/A,,Clear,190,2013-09-07 08:53:00
4:53 AM,66.9,60.1,79,29.96,10.0,South,5.8,-,N/A,,Clear,190,2013-09-07 09:53:00
5:53 AM,70.0,60.1,71,29.96,10.0,SSW,9.2,-,N/A,,Clear,200,2013-09-07 10:53:00
6:53 AM,71.1,59.0,66,29.95,10.0,South,11.5,-,N/A,,Clear,190,2013-09-07 11:53:00
7:53 AM,72.0,61.0,68,29.95,10.0,South,8.1,-,0.00,,Partly Cloudy,190,2013-09-07 12:53:00
8:53 AM,72.0,62.1,71,29.94,10.0,South,8.1,-,0.00,,Clear,190,2013-09-07 13:53:00
9:53 AM,78.1,64.0,62,29.94,10.0,SSW,8.1,-,N/A,,Clear,210,2013-09-07 14:53:00
10:53 AM,82.9,66.0,56,29.94,10.0,SSW,11.5,-,N/A,,Clear,210,2013-09-07 15:53:00
11:53 AM,88.0,66.9,49,29.92,10.0,SSW,12.7,-,N/A,,Clear,210,2013-09-07 16:53:00
12:53 PM,91.0,66.9,45,29.88,10.0,South,10.4,20.7,N/A,,Clear,180,2013-09-07 17:53:00
1:53 PM,93.0,66.9,42,29.86,10.0,SSW,8.1,17.3,N/A,,Clear,210,2013-09-07 18:53:00
2:53 PM,95.0,66.0,38,29.84,10.0,SW,13.8,-,N/A,,Clear,220,2013-09-07 19:53:00
3:53 PM,93.9,64.9,38,29.84,10.0,WSW,13.8,-,N/A,,Clear,240,2013-09-07 20:53:00
4:53 PM,93.9,68.0,43,29.83,10.0,SSW,9.2,-,N/A,,Clear,210,2013-09-07 21:53:00
5:53 PM,91.0,68.0,47,29.82,10.0,SSW,6.9,-,N/A,,Clear,200,2013-09-07 22:53:00
6:53 PM,87.1,68.0,53,29.82,10.0,South,4.6,-,N/A,,Clear,170,2013-09-07 23:53:00
7:53 PM,86.0,66.9,53,29.83,10.0,Calm,Calm,-,N/A,,Clear,0,2013-09-08 00:53:00
8:53 PM,84.9,66.9,55,29.85,10.0,SW,3.5,-,N/A,,Clear,220,2013-09-08 01:53:00
9:53 PM,82.9,68.0,60,29.85,10.0,Calm,Calm,-,N/A,,Clear,0,2013-09-08 02:53:00
10:53 PM,81.0,70.0,69,29.85,10.0,NNW,4.6,-,N/A,,Clear,340,2013-09-08 03:53:00
11:53 PM,78.1,70.0,76,29.85,10.0,NNW,4.6,-,N/A,,Clear,330,2013-09-08 04:53:00